Regional Weather Roundup
Issued by NWS

Home | Current Version | Previous Version | Text Only | Print | Product List | Glossary On
Versions: 1 2 3 4 5 6 7 8 9 10 11 12 13 14 15 16 17 18 19 20 21 22 23 24 25 26 27 28 29 30 31 32 33 34 35 36 37 38 39 40 41 42 43 44 45 46 47 48 49 50
000
ASUS44 KLUB 201410
RWRTX
WEST TEXAS WEATHER ROUNDUP
NATIONAL WEATHER SERVICE LUBBOCK TX
900 AM CDT THU JUL 20 2017

NOTE: "FAIR" INDICATES FEW OR NO CLOUDS BELOW 12,000 FEET WITH NO
SIGNIFICANT WEATHER AND/OR OBSTRUCTIONS TO VISIBILITY.

TXZ004-006>008-010-012-014-016-OKZ002-201500-
TEXAS PANHANDLE/OKLAHOMA PANHANDLE

CITY           SKY/WX    TMP DP  RH WIND       PRES   REMARKS
AMARILLO       SUNNY     78  61  55 SW13      30.21R
BORGER         SUNNY     84  61  45 SW15G23   30.16S
CANADIAN       SUNNY     84  64  51 SW10      30.11S
DALHART        SUNNY     79  60  52 SW14      30.21R
DUMAS          SUNNY     80  59  47 SW18G24   30.19S
GUYMON         SUNNY     82  62  50 S17       30.11S
HEREFORD       SUNNY     79  61  54 SW14      30.24R
PAMPA          SUNNY     85  59  40 SW15      30.19R
PERRYTON       SUNNY     82  63  52 SW12      30.13R
$$

TXZ026-029-035-045-048-201500-
SOUTHERN PANHANDLE/SOUTH PLAINS/ROLLING PLAINS

CITY           SKY/WX    TMP DP  RH WIND       PRES   REMARKS
CHILDRESS      SUNNY     83  61  47 SW7       30.14R
SEMINOLE       SUNNY     76  61  59 SE10      30.24R
LUBBOCK        MOSUNNY   77  62  59 SW6       30.22R
PLAINVIEW      SUNNY     78  61  56 SW8       30.21R
SNYDER         SUNNY     78  64  61 S10       30.20R
$$

TXZ052-054-060>062-072-078-127-140-154-169-201500-
PERMIAN BASIN/CONCHO VALLEY/BIG COUNTRY/EDWARDS PLATEAU

CITY           SKY/WX    TMP DP  RH WIND       PRES   REMARKS
ABILENE        SUNNY     82  69  64 SW13      30.17R
BIG SPRING     SUNNY     79  66  65 S15       30.22R
BROWNWOOD      SUNNY     82  72  69 S6        30.17S
JUNCTION       SUNNY     79  72  79 VRB3      30.18R
MIDLAND        SUNNY     80  65  59 S15       30.20R
ODESSA         SUNNY     78  65  63 S14       30.21R
SAN ANGELO     SUNNY     80  68  66 S12       30.18R
SONORA         SUNNY     79  72  78 S8        30.24R
SWEETWATER     SUNNY     82  67  60 S14       30.21S
WINK           SUNNY     78  65  63 SE14      30.17R
$$

TXZ055-058-074-075-080-082-201500-
FAR WEST/SOUTHWEST MOUNTAINS/TRANS PECOS

CITY           SKY/WX    TMP DP  RH WIND       PRES   REMARKS
ALPINE         MOSUNNY   71  62  73 CALM      30.34R
DRYDEN           N/A     76  71  85 E8        30.16R
EL PASO        MOSUNNY   73  63  70 N5        30.21R
FORT STOCKTON  SUNNY     75  66  73 S13       30.20R
GUADALUPE PASS CLOUDY    69  61  75 E14       30.33R
MARFA          CLOUDY    71  63  75 E6        30.32R
PECOS          SUNNY     77  63  62 S7        30.18R
PRESIDIO       FAIR      73  65  76 CALM      30.20R
$$

TXZ014-016-019-021>030-083-201500
TEXAS TECH WEST TEXAS MESONET/TEXAS PANHANDLE/NORTHERN SOUTH PLAINS

CITY           SKY/WX    TMP DP  RH WIND       PRES   REMARKS
ABERNATHY 5ENE   N/A     80  62  54 SW10      30.23S
AMARILLO 9NNE    N/A     81  61  51 S15       30.19S
AMARILLO 7SSE    N/A     79  61  53 SW10      30.23S
AMHERST 1NE      N/A     76  61  59 S9        30.24R
BOOTLEG 11WNW    N/A     76  59  55 S16       30.28S
CANADIAN 6E      N/A     83  64  51 SE1       30.10S
CAPROCK CYN SP   N/A     85  58  39 SW15      30.17S
CHILDRESS 2NNE   N/A     84  61  46 SW8       30.13S
CLARENDON 2WSW   N/A     82  60  46 SW13      30.18R
CLAUDE 12SW      N/A     81  60  48 S5        30.22S
DIMMITT 2NE      N/A     76  62  60 S13       30.24S
FLOYDADA 2NNE    N/A     80  60  51 SW8       30.22R
FRIONA 2NE       N/A     77  59  53 S14       30.26R
GOODLETT 3W      N/A     83  61  46 S12       30.11S
HART 3N          N/A     75  63  65 SW6       30.24S
HEREFORD 2NW     N/A     78  57  48 S10       30.24R
MCLEAN 1E        N/A     82  59  45 S9        30.16S
MEMPHIS 1NE      N/A     81  60  48 SW3       30.14S
MULESHOE 2SSW    N/A     77  62  59 S12       30.24S
OLTON 6S         N/A     78  62  58 S8        30.23R
PALO DURO SP     N/A     81  61  49 S7        30.23S
PAMPA 2E         N/A     82  62  50 SW9       30.18S
PLAINVIEW 1S     N/A     79  62  57 SW8       30.22R
SILVERTON 7ESE   N/A     82  58  44 SW14      30.21R
TULIA 2ENE       N/A     79  62  56 SW12      30.23R
TURKEY 2WSW      N/A     85  62  47 SW8       30.16R
UMBARGER 3NNE    N/A     78  61  55 S13       30.24S
$$

TXZ033>036-039>041-045>048-201500
TEXAS TECH WEST TEXAS MESONET/SOUTH PLAINS

CITY           SKY/WX    TMP DP  RH WIND       PRES   REMARKS
AIKEN 3WSW       N/A     77  64  63 SW5       30.24R
ANTON 6SSW       N/A     79  63  57 S10       30.23R
BROWNFIELD 2S    N/A     79  61  54 SE9       30.23S
DENVR CTY 7WNW   N/A     76  60  56 SE15      30.24S
GAIL 2ESE        N/A     81  64  55 S7        30.19S
LAMESA 2SE       N/A     77  65  65 S13       30.22S
LEVELLAND 4S     N/A     79  62  55 S12       30.23S
LUBBOCK 3WNW     N/A     80  61  51 S6        30.23R
MORTON 1ENE      N/A     78  62  56 S13       30.24S
ODONNELL 1N      N/A     79  59  50 S10       30.22R
PLAINS 3N        N/A     77  61  56 SE12      30.25S
RALLS 1SE        N/A     80  61  52 SW9       30.22S
REESE CENTER     N/A     78  61  56 S6        30.23R
SEAGRAVES 1SW    N/A     78  62  57 SE9       30.23S
SEMINOLE 2NNE    N/A     78  60  54 SE12      30.23R
SLATON 2NE       N/A     81  62  52 S9        30.22S
SNYDER 3E        N/A     81  66  59 S12       30.19S
SUNDOWN 8SW      N/A     78  62  57 S10       30.24S
TAHOKA 3NNE      N/A     80  61  52 S9        30.22S
WOLFFORTH 6SSW   N/A     79  61  53 S9        30.23S
$$

TXZ031-032-036>038-042>044-201500-
TEXAS TECH WEST TEXAS MESONET/ROLLING PLAINS

CITY           SKY/WX    TMP DP  RH WIND       PRES   REMARKS
ASPERMONT 3NE    N/A     84  65  53 SW12      30.15R
FLUVANNA 3WNW    N/A     78  62  57 S9        30.21R
GRAHAM 5SSW      N/A     79  60  52 S7        30.22R
GUTHRIE 10WSW    N/A     83  60  45 SW10      30.15S
HASKELL 1NW      N/A     83  63  50 SW12      30.14R
JAYTON 1SSE      N/A     83  62  49 SW8       30.16S
KNOX CITY 3NW    N/A     84  62  47 SW10      30.14R
LK A HENRY 1NW   N/A     83  62  49 SW12      30.18S
NORTHFIELD 1S    N/A     85  60  43 SW9       30.14S
ODELL 4ENE       N/A     83  69  61 S6        30.11S
PADUCAH 10SW     N/A     86  61  43 SW8       30.14S
POST 1NE         N/A     82  59  45 S5        30.19S
RRING SPRGS 3N   N/A     85  64  49 SW10      30.18R
SEYMOUR 3NW      N/A     86  65  50 S10       30.12R
SPUR 1W          N/A     79  60  50 SW7       30.17S
WEINERT 2NNE     N/A     85  67  53 SW12      30.14S
WHITE RVR 6NE    N/A     82  61  49 SE8       30.19S
$$

TXZ052-054-060>062-072-078-127-140-154-169-201500-
TEXAS TECH WEST TEXAS MESONET/PERMIAN BASIN/
CONCHO VALLEY/BIG COUNTRY/EDWARDS PLATEAU

CITY           SKY/WX    TMP DP  RH WIND       PRES   REMARKS
COYANOSA 2N      N/A     78  66  64 SE10      30.18R
JUNCTION 1SSW    N/A     82  72  72 S6        30.19R
MERTZON 3NNE     N/A     80  69  68 S8        30.20S
SAN ANGELO 7NW   N/A     82  66  59 S12       30.19R
STRLNG CT 4WSW   N/A     81  67  63 S12       30.20S
ST LAWRNCE 5SW   N/A     78  67  68 S15       30.21R
SWEETWATR 11SW   N/A     81  68  64 S12       30.21S
WALL 1E          N/A     82  71  67 S9        30.19S
$$

TXZ055-058-074-075-080-082-201500-
TEXAS TECH WEST TEXAS MESONET/FAR WEST/SOUTHWEST MOUNTAINS/TRANS PECOS

CITY           SKY/WX    TMP DP  RH WIND       PRES   REMARKS
GUADLPE MTN NP   N/A     70  59  67 NE3       30.35R
$$




USA.gov is the U.S. government's official web portal to all federal, state and local government web resources and services.